Year,Month,Day,Hour,Minute,Value (Times are PST for temperature in C)
2018,02,24,00,00,1.90
2018,02,24,00,01,1.90
2018,02,24,00,02,2.00
2018,02,24,00,03,2.00
2018,02,24,00,04,2.00
2018,02,24,00,05,2.00
2018,02,24,00,06,2.00
2018,02,24,00,07,2.00
2018,02,24,00,08,2.10
2018,02,24,00,09,2.10
2018,02,24,00,10,2.10
2018,02,24,00,11,2.10
2018,02,24,00,12,2.10
2018,02,24,00,13,2.10
2018,02,24,00,14,2.10
2018,02,24,00,15,2.10
2018,02,24,00,16,2.10
2018,02,24,00,17,2.10
2018,02,24,00,18,2.10
2018,02,24,00,19,2.10
2018,02,24,00,20,2.10
2018,02,24,00,21,2.10
2018,02,24,00,22,2.10
2018,02,24,00,23,2.20
2018,02,24,00,24,2.20
2018,02,24,00,25,2.20
2018,02,24,00,26,2.20
2018,02,24,00,27,2.20
2018,02,24,00,28,2.10
2018,02,24,00,29,2.10
2018,02,24,00,30,2.10
2018,02,24,00,31,2.10
2018,02,24,00,32,2.20
2018,02,24,00,33,2.20
2018,02,24,00,34,2.20
2018,02,24,00,35,2.20
2018,02,24,00,36,2.20
2018,02,24,00,37,2.20
2018,02,24,00,38,2.20
2018,02,24,00,39,2.20
2018,02,24,00,40,2.20
2018,02,24,00,41,2.20
2018,02,24,00,42,2.20
2018,02,24,00,43,2.20
2018,02,24,00,44,2.20
2018,02,24,00,45,2.20
2018,02,24,00,46,2.30
2018,02,24,00,47,2.30
2018,02,24,00,48,2.30
2018,02,24,00,49,2.30
2018,02,24,00,50,2.30
2018,02,24,00,51,2.30
2018,02,24,00,52,2.30
2018,02,24,00,53,2.30
2018,02,24,00,54,2.30
2018,02,24,00,55,2.30
2018,02,24,00,56,2.20
2018,02,24,00,57,2.20
2018,02,24,00,58,2.20
2018,02,24,00,59,2.20
2018,02,24,01,00,2.30
2018,02,24,01,01,2.30
2018,02,24,01,02,2.30
2018,02,24,01,03,2.30
2018,02,24,01,04,2.30
2018,02,24,01,05,2.20
2018,02,24,01,06,2.20
2018,02,24,01,07,2.20
2018,02,24,01,08,2.20
2018,02,24,01,09,2.20
2018,02,24,01,10,2.20
2018,02,24,01,11,2.20
2018,02,24,01,12,2.20
2018,02,24,01,13,2.20
2018,02,24,01,14,2.20
2018,02,24,01,15,2.20
2018,02,24,01,16,2.20
2018,02,24,01,17,2.30
2018,02,24,01,18,2.20
2018,02,24,01,19,2.30
2018,02,24,01,20,2.30
2018,02,24,01,21,2.30
2018,02,24,01,22,2.30
2018,02,24,01,23,2.30
2018,02,24,01,24,2.30
2018,02,24,01,25,2.30
2018,02,24,01,26,2.30
2018,02,24,01,27,2.30
2018,02,24,01,28,2.30
2018,02,24,01,29,2.30
2018,02,24,01,30,2.30
2018,02,24,01,31,2.30
2018,02,24,01,32,2.30
2018,02,24,01,33,2.30
2018,02,24,01,34,2.30
2018,02,24,01,35,2.30
2018,02,24,01,36,2.30
2018,02,24,01,37,2.30
2018,02,24,01,38,2.30
2018,02,24,01,39,2.30
2018,02,24,01,40,2.20
2018,02,24,01,41,2.20
2018,02,24,01,42,2.20
2018,02,24,01,43,2.20
2018,02,24,01,44,2.10
2018,02,24,01,45,2.00
2018,02,24,01,46,2.00
2018,02,24,01,47,1.90
2018,02,24,01,48,1.90
2018,02,24,01,49,1.90
2018,02,24,01,50,1.90
2018,02,24,01,51,1.90
2018,02,24,01,52,1.90
2018,02,24,01,53,1.90
2018,02,24,01,54,1.90
2018,02,24,01,55,1.90
2018,02,24,01,56,1.90
2018,02,24,01,57,1.90
2018,02,24,01,58,1.90
2018,02,24,01,59,1.80
2018,02,24,02,00,1.80
2018,02,24,02,01,1.80
2018,02,24,02,02,1.80
2018,02,24,02,03,1.80
2018,02,24,02,04,1.80
2018,02,24,02,05,1.80
2018,02,24,02,06,1.80
2018,02,24,02,07,1.70
2018,02,24,02,08,1.70
2018,02,24,02,09,1.70
2018,02,24,02,10,1.70
2018,02,24,02,11,1.70
2018,02,24,02,12,1.70
2018,02,24,02,13,1.60
2018,02,24,02,14,1.60
2018,02,24,02,15,1.60
2018,02,24,02,16,1.60
2018,02,24,02,17,1.50
2018,02,24,02,18,1.50
2018,02,24,02,19,1.50
2018,02,24,02,20,1.50
2018,02,24,02,21,1.40
2018,02,24,02,22,1.40
2018,02,24,02,23,1.40
2018,02,24,02,24,1.50
2018,02,24,02,25,1.50
2018,02,24,02,26,1.50
2018,02,24,02,27,1.40
2018,02,24,02,28,1.50
2018,02,24,02,29,1.40
2018,02,24,02,30,1.50
2018,02,24,02,31,1.40
2018,02,24,02,32,1.40
2018,02,24,02,33,1.40
2018,02,24,02,34,1.40
2018,02,24,02,35,1.40
2018,02,24,02,36,1.40
2018,02,24,02,37,1.40
2018,02,24,02,38,1.40
2018,02,24,02,39,1.40
2018,02,24,02,40,1.40
2018,02,24,02,41,1.40
2018,02,24,02,42,1.40
2018,02,24,02,43,1.40
2018,02,24,02,44,1.40
2018,02,24,02,45,1.40
2018,02,24,02,46,1.40
2018,02,24,02,47,1.40
2018,02,24,02,48,1.40
2018,02,24,02,49,1.40
2018,02,24,02,50,1.40
2018,02,24,02,51,1.40
2018,02,24,02,52,1.40
2018,02,24,02,53,1.40
2018,02,24,02,54,1.40
2018,02,24,02,55,1.40
2018,02,24,02,56,1.40
2018,02,24,02,57,1.40
2018,02,24,02,58,1.40
2018,02,24,02,59,1.40
2018,02,24,03,00,1.40
2018,02,24,03,01,1.40
2018,02,24,03,02,1.40
2018,02,24,03,03,1.50
2018,02,24,03,04,1.50
2018,02,24,03,05,1.50
2018,02,24,03,06,1.50
2018,02,24,03,07,1.50
2018,02,24,03,08,1.50
2018,02,24,03,09,1.50
2018,02,24,03,10,1.50
2018,02,24,03,11,1.50
2018,02,24,03,12,1.50
2018,02,24,03,13,1.50
2018,02,24,03,14,1.50
2018,02,24,03,15,1.50
2018,02,24,03,16,1.50
2018,02,24,03,17,1.50
2018,02,24,03,18,1.50
2018,02,24,03,19,1.50
2018,02,24,03,20,1.50
2018,02,24,03,21,1.50
2018,02,24,03,22,1.50
2018,02,24,03,23,1.50
2018,02,24,03,24,1.50
2018,02,24,03,25,1.50
2018,02,24,03,26,1.50
2018,02,24,03,27,1.50
2018,02,24,03,28,1.50
2018,02,24,03,29,1.50
2018,02,24,03,30,1.50
2018,02,24,03,31,1.50
2018,02,24,03,32,1.50
2018,02,24,03,33,1.50
2018,02,24,03,34,1.50
2018,02,24,03,35,1.50
2018,02,24,03,36,1.50
2018,02,24,03,37,1.50
2018,02,24,03,38,1.50
2018,02,24,03,39,1.50
2018,02,24,03,40,1.50
2018,02,24,03,41,1.50
2018,02,24,03,42,1.50
2018,02,24,03,43,1.50
2018,02,24,03,44,1.50
2018,02,24,03,45,1.40
2018,02,24,03,46,1.40
2018,02,24,03,47,1.40
2018,02,24,03,48,1.40
2018,02,24,03,49,1.40
2018,02,24,03,50,1.40
2018,02,24,03,51,1.40
2018,02,24,03,52,1.40
2018,02,24,03,53,1.40
2018,02,24,03,54,1.40
2018,02,24,03,55,1.40
2018,02,24,03,56,1.40
2018,02,24,03,57,1.40
2018,02,24,03,58,1.40
2018,02,24,03,59,1.40
2018,02,24,04,00,1.40
2018,02,24,04,01,1.40
2018,02,24,04,02,1.40
2018,02,24,04,03,1.40
2018,02,24,04,04,1.40
2018,02,24,04,05,1.40
2018,02,24,04,06,1.40
2018,02,24,04,07,1.40
2018,02,24,04,08,1.40
2018,02,24,04,09,1.40
2018,02,24,04,10,1.40
2018,02,24,04,11,1.40
2018,02,24,04,12,1.40
2018,02,24,04,13,1.40
2018,02,24,04,14,1.40
2018,02,24,04,15,1.40
2018,02,24,04,16,1.40
2018,02,24,04,17,1.40
2018,02,24,04,18,1.40
2018,02,24,04,19,1.40
2018,02,24,04,20,1.40
2018,02,24,04,21,1.40
2018,02,24,04,22,1.40
2018,02,24,04,23,1.40
2018,02,24,04,24,1.40
2018,02,24,04,25,1.40
2018,02,24,04,26,1.30
2018,02,24,04,27,1.30
2018,02,24,04,28,1.30
2018,02,24,04,29,1.30
2018,02,24,04,30,1.30
2018,02,24,04,31,1.30
2018,02,24,04,32,1.30
2018,02,24,04,33,1.30
2018,02,24,04,34,1.30
2018,02,24,04,35,1.30
2018,02,24,04,36,1.30
2018,02,24,04,37,1.30
2018,02,24,04,38,1.30
2018,02,24,04,39,1.30
2018,02,24,04,40,1.30
2018,02,24,04,41,1.30
2018,02,24,04,42,1.30
2018,02,24,04,43,1.30
2018,02,24,04,44,1.30
2018,02,24,04,45,1.30
2018,02,24,04,46,1.30
2018,02,24,04,47,1.30
2018,02,24,04,48,1.30
2018,02,24,04,49,1.30
2018,02,24,04,50,1.30
2018,02,24,04,51,1.30
2018,02,24,04,52,1.30
2018,02,24,04,53,1.30
2018,02,24,04,54,1.30
2018,02,24,04,55,1.30
2018,02,24,04,56,1.20
2018,02,24,04,57,1.20
2018,02,24,04,58,1.20
2018,02,24,04,59,1.20
2018,02,24,05,00,1.20
2018,02,24,05,01,1.20
2018,02,24,05,02,1.20
2018,02,24,05,03,1.20
2018,02,24,05,04,1.20
2018,02,24,05,05,1.20
2018,02,24,05,06,1.20
2018,02,24,05,07,1.20
2018,02,24,05,08,1.10
2018,02,24,05,09,1.10
2018,02,24,05,10,1.10
2018,02,24,05,11,1.10
2018,02,24,05,12,1.10
2018,02,24,05,13,1.10
2018,02,24,05,14,1.10
2018,02,24,05,15,1.10
2018,02,24,05,16,1.10
2018,02,24,05,17,1.10
2018,02,24,05,18,1.10
2018,02,24,05,19,1.10
2018,02,24,05,20,1.10
2018,02,24,05,21,1.00
2018,02,24,05,22,1.00
2018,02,24,05,23,1.00
2018,02,24,05,24,1.00
2018,02,24,05,25,1.00
2018,02,24,05,26,1.00
2018,02,24,05,27,1.00
2018,02,24,05,28,1.00
2018,02,24,05,29,1.00
2018,02,24,05,30,1.00
2018,02,24,05,31,1.00
2018,02,24,05,32,1.00
2018,02,24,05,33,1.00
2018,02,24,05,34,1.00
2018,02,24,05,35,1.00
2018,02,24,05,36,1.00
2018,02,24,05,37,1.00
2018,02,24,05,38,1.00
2018,02,24,05,39,1.00
2018,02,24,05,40,1.00
2018,02,24,05,41,1.00
2018,02,24,05,42,1.00
2018,02,24,05,43,1.00
2018,02,24,05,44,0.90
2018,02,24,05,45,0.90
2018,02,24,05,46,0.90
2018,02,24,05,47,0.90
2018,02,24,05,48,0.90
2018,02,24,05,49,0.90
2018,02,24,05,50,0.90
2018,02,24,05,51,0.90
2018,02,24,05,52,0.90
2018,02,24,05,53,0.80
2018,02,24,05,54,0.80
2018,02,24,05,55,0.80
2018,02,24,05,56,0.80
2018,02,24,05,57,0.80
2018,02,24,05,58,0.80
2018,02,24,05,59,0.80
2018,02,24,06,00,0.70
2018,02,24,06,01,0.70
2018,02,24,06,02,0.70
2018,02,24,06,03,0.70
2018,02,24,06,04,0.70
2018,02,24,06,05,0.70
2018,02,24,06,06,0.70
2018,02,24,06,07,0.70
2018,02,24,06,08,0.70
2018,02,24,06,09,0.70
2018,02,24,06,10,0.60
2018,02,24,06,11,0.70
2018,02,24,06,12,0.70
2018,02,24,06,13,0.70
2018,02,24,06,14,0.70
2018,02,24,06,15,0.70
2018,02,24,06,16,0.70
2018,02,24,06,17,0.70
2018,02,24,06,18,0.70
2018,02,24,06,19,0.70
2018,02,24,06,20,0.70
2018,02,24,06,21,0.70
2018,02,24,06,22,0.70
2018,02,24,06,23,0.70
2018,02,24,06,24,0.60
2018,02,24,06,25,0.60
2018,02,24,06,26,0.60
2018,02,24,06,27,0.60
2018,02,24,06,28,0.60
2018,02,24,06,29,0.60
2018,02,24,06,30,0.60
2018,02,24,06,31,0.60
2018,02,24,06,32,0.60
2018,02,24,06,33,0.60
2018,02,24,06,34,0.60
2018,02,24,06,35,0.60
2018,02,24,06,36,0.60
2018,02,24,06,37,0.60
2018,02,24,06,38,0.60
2018,02,24,06,39,0.60
2018,02,24,06,40,0.60
2018,02,24,06,41,0.60
2018,02,24,06,42,0.60
2018,02,24,06,43,0.60
2018,02,24,06,44,0.60
2018,02,24,06,45,0.60
2018,02,24,06,46,0.60
2018,02,24,06,47,0.60
2018,02,24,06,48,0.60
2018,02,24,06,49,0.60
2018,02,24,06,50,0.60
2018,02,24,06,51,0.60
2018,02,24,06,52,0.60
2018,02,24,06,53,0.50
2018,02,24,06,54,0.50
2018,02,24,06,55,0.50
2018,02,24,06,56,0.50
2018,02,24,06,57,0.50
2018,02,24,06,58,0.50
2018,02,24,06,59,0.40
2018,02,24,07,00,0.40
2018,02,24,07,01,0.40
2018,02,24,07,02,0.40
2018,02,24,07,03,0.40
2018,02,24,07,04,0.40
2018,02,24,07,05,0.40
2018,02,24,07,06,0.40
2018,02,24,07,07,0.40
2018,02,24,07,08,0.30
2018,02,24,07,09,0.30
2018,02,24,07,10,0.30
2018,02,24,07,11,0.30
2018,02,24,07,12,0.30
2018,02,24,07,13,0.30
2018,02,24,07,14,0.30
2018,02,24,07,15,0.30
2018,02,24,07,16,0.30
2018,02,24,07,17,0.30
2018,02,24,07,18,0.30
2018,02,24,07,19,0.30
2018,02,24,07,20,0.30
2018,02,24,07,21,0.30
2018,02,24,07,22,0.30
2018,02,24,07,23,0.30
2018,02,24,07,24,0.30
2018,02,24,07,25,0.30
2018,02,24,07,26,0.30
2018,02,24,07,27,0.30
2018,02,24,07,28,0.30
2018,02,24,07,29,0.30
2018,02,24,07,30,0.30
2018,02,24,07,31,0.30
2018,02,24,07,32,0.30
2018,02,24,07,33,0.30
2018,02,24,07,34,0.30
2018,02,24,07,35,0.40
2018,02,24,07,36,0.40
2018,02,24,07,37,0.40
2018,02,24,07,38,0.40
2018,02,24,07,39,0.40
2018,02,24,07,40,0.40
2018,02,24,07,41,0.50
2018,02,24,07,42,0.50
2018,02,24,07,43,0.50
2018,02,24,07,44,0.50
2018,02,24,07,45,0.50
2018,02,24,07,46,0.60
2018,02,24,07,47,0.60
2018,02,24,07,48,0.60
2018,02,24,07,49,0.60
2018,02,24,07,50,0.70
2018,02,24,07,51,0.70
2018,02,24,07,52,0.70
2018,02,24,07,53,0.70
2018,02,24,07,54,0.80
2018,02,24,07,55,0.80
2018,02,24,07,56,0.80
2018,02,24,07,57,0.80
2018,02,24,07,58,0.80
2018,02,24,07,59,0.90
2018,02,24,08,00,0.90
2018,02,24,08,01,0.90
2018,02,24,08,02,0.90
2018,02,24,08,03,0.90
2018,02,24,08,04,0.90
2018,02,24,08,05,0.90
2018,02,24,08,06,0.90
2018,02,24,08,07,0.90
2018,02,24,08,08,0.90
2018,02,24,08,09,0.90
2018,02,24,08,10,0.90
2018,02,24,08,11,0.90
2018,02,24,08,12,0.80
2018,02,24,08,13,0.80
2018,02,24,08,14,0.80
2018,02,24,08,15,0.80
2018,02,24,08,16,0.80
2018,02,24,08,17,0.80
2018,02,24,08,18,0.80
2018,02,24,08,19,0.80
2018,02,24,08,20,0.80
2018,02,24,08,21,0.80
2018,02,24,08,22,0.90
2018,02,24,08,23,0.90
2018,02,24,08,24,0.90
2018,02,24,08,25,0.90
2018,02,24,08,26,0.90
2018,02,24,08,27,0.90
2018,02,24,08,28,0.90
2018,02,24,08,29,0.90
2018,02,24,08,30,0.80
2018,02,24,08,31,0.90
2018,02,24,08,32,0.90
2018,02,24,08,33,0.90
2018,02,24,08,34,0.90
2018,02,24,08,35,1.00
2018,02,24,08,36,1.00
2018,02,24,08,37,1.00
2018,02,24,08,38,1.00
2018,02,24,08,39,1.10
2018,02,24,08,40,1.10
2018,02,24,08,41,1.10
2018,02,24,08,42,1.10
2018,02,24,08,43,1.10
2018,02,24,08,44,1.10
2018,02,24,08,45,1.20
2018,02,24,08,46,1.20
2018,02,24,08,47,1.20
2018,02,24,08,48,1.30
2018,02,24,08,49,1.30
2018,02,24,08,50,1.30
2018,02,24,08,51,1.30
2018,02,24,08,52,1.40
2018,02,24,08,53,1.40
2018,02,24,08,54,1.50
2018,02,24,08,55,1.50
2018,02,24,08,56,1.60
2018,02,24,08,57,1.60
2018,02,24,08,58,1.60
2018,02,24,08,59,1.70
2018,02,24,09,00,1.70
2018,02,24,09,01,1.80
2018,02,24,09,02,1.80
2018,02,24,09,03,1.80
2018,02,24,09,04,1.80
2018,02,24,09,05,1.90
2018,02,24,09,06,1.90
2018,02,24,09,07,1.90
2018,02,24,09,08,2.00
2018,02,24,09,09,2.00
2018,02,24,09,10,2.10
2018,02,24,09,11,2.10
2018,02,24,09,12,2.10
2018,02,24,09,13,2.20
2018,02,24,09,14,2.20
2018,02,24,09,15,2.20
2018,02,24,09,16,2.20
2018,02,24,09,17,2.20
2018,02,24,09,18,2.20
2018,02,24,09,19,2.20
2018,02,24,09,20,2.20
2018,02,24,09,21,2.20
2018,02,24,09,22,2.20
2018,02,24,09,23,2.30
2018,02,24,09,24,2.30
2018,02,24,09,25,2.30
2018,02,24,09,26,2.30
2018,02,24,09,27,2.40
2018,02,24,09,28,2.40
2018,02,24,09,29,2.50
2018,02,24,09,30,2.50
2018,02,24,09,31,2.50
2018,02,24,09,32,2.60
2018,02,24,09,33,2.70
2018,02,24,09,34,2.70
2018,02,24,09,35,2.80
2018,02,24,09,36,2.80
2018,02,24,09,37,2.80
2018,02,24,09,38,2.90
2018,02,24,09,39,2.90
2018,02,24,09,40,2.90
2018,02,24,09,41,3.00
2018,02,24,09,42,3.00
2018,02,24,09,43,3.10
2018,02,24,09,44,3.10
2018,02,24,09,45,3.20
2018,02,24,09,46,3.20
2018,02,24,09,47,3.20
2018,02,24,09,48,3.20
2018,02,24,09,49,3.20
2018,02,24,09,50,3.20
2018,02,24,09,51,3.20
2018,02,24,09,52,3.20
2018,02,24,09,53,3.20
2018,02,24,09,54,3.30
2018,02,24,09,55,3.30
2018,02,24,09,56,3.30
2018,02,24,09,57,3.40
2018,02,24,09,58,3.40
2018,02,24,09,59,3.50
2018,02,24,10,00,3.60
2018,02,24,10,01,3.70
2018,02,24,10,02,3.70
2018,02,24,10,03,3.80
2018,02,24,10,04,3.80
2018,02,24,10,05,3.90
2018,02,24,10,06,3.90
2018,02,24,10,07,3.90
2018,02,24,10,08,4.00
2018,02,24,10,09,4.00
2018,02,24,10,10,4.00
2018,02,24,10,11,4.10
2018,02,24,10,12,4.10
2018,02,24,10,13,4.20
2018,02,24,10,14,4.20
2018,02,24,10,15,4.30
2018,02,24,10,16,4.30
2018,02,24,10,17,4.40
2018,02,24,10,18,4.50
2018,02,24,10,19,4.50
2018,02,24,10,20,4.60
2018,02,24,10,21,4.60
2018,02,24,10,22,4.60
2018,02,24,10,23,4.70
2018,02,24,10,24,4.70
2018,02,24,10,25,4.70
2018,02,24,10,26,4.70
2018,02,24,10,27,4.70
2018,02,24,10,28,4.70
2018,02,24,10,29,4.70
2018,02,24,10,30,4.70
2018,02,24,10,31,4.70
2018,02,24,10,32,4.70
2018,02,24,10,33,4.70
2018,02,24,10,34,4.70
2018,02,24,10,35,4.70
2018,02,24,10,36,4.70
2018,02,24,10,37,4.70
2018,02,24,10,38,4.70
2018,02,24,10,39,4.70
2018,02,24,10,40,4.70
2018,02,24,10,41,4.80
2018,02,24,10,42,4.80
2018,02,24,10,43,4.80
2018,02,24,10,44,4.80
2018,02,24,10,45,4.80
2018,02,24,10,46,4.80
2018,02,24,10,47,4.80
2018,02,24,10,48,4.80
2018,02,24,10,49,4.80
2018,02,24,10,50,4.80
2018,02,24,10,51,4.70
2018,02,24,10,52,4.70
2018,02,24,11,06,1.50
2018,02,24,12,06,3.40
2018,02,24,12,07,3.40
2018,02,24,12,08,3.50
2018,02,24,12,09,3.60
2018,02,24,12,10,3.70
2018,02,24,12,11,3.70
2018,02,24,12,12,3.70
2018,02,24,12,13,3.70
2018,02,24,12,14,3.70
2018,02,24,12,15,3.70
2018,02,24,12,16,3.70
2018,02,24,12,17,3.60
2018,02,24,12,18,3.60
2018,02,24,12,19,3.50
2018,02,24,12,20,3.50
2018,02,24,12,21,3.40
2018,02,24,12,22,3.40
2018,02,24,12,23,3.40
2018,02,24,12,24,3.40
2018,02,24,12,25,3.40
2018,02,24,12,26,3.40
2018,02,24,12,27,3.40
2018,02,24,12,28,3.40
2018,02,24,12,29,3.40
2018,02,24,12,30,3.40
2018,02,24,12,31,3.50
2018,02,24,12,32,3.50
2018,02,24,12,33,3.60
2018,02,24,12,34,3.60
2018,02,24,12,35,3.60
2018,02,24,12,36,3.60
2018,02,24,12,37,3.70
2018,02,24,12,38,3.70
2018,02,24,12,39,3.70
2018,02,24,12,40,3.70
2018,02,24,12,41,3.70
2018,02,24,12,42,3.70
2018,02,24,12,43,3.70
2018,02,24,12,44,3.80
2018,02,24,12,45,3.90
2018,02,24,12,46,3.90
2018,02,24,12,47,4.00
2018,02,24,12,48,4.00
2018,02,24,12,49,4.00
2018,02,24,12,50,4.00
2018,02,24,12,51,4.00
2018,02,24,12,52,4.00
2018,02,24,12,53,4.00
2018,02,24,12,54,4.00
2018,02,24,12,55,4.00
2018,02,24,12,56,4.10
2018,02,24,12,57,4.10
2018,02,24,12,58,4.10
2018,02,24,12,59,4.10
2018,02,24,13,00,4.20
2018,02,24,13,01,4.20
2018,02,24,13,02,4.20
2018,02,24,13,03,4.20
2018,02,24,13,04,4.30
2018,02,24,13,05,4.30
2018,02,24,13,06,4.30
2018,02,24,13,07,4.30
2018,02,24,13,08,4.30
2018,02,24,13,09,4.30
2018,02,24,13,10,4.40
2018,02,24,13,11,4.40
2018,02,24,13,12,4.40
2018,02,24,13,13,4.40
2018,02,24,13,14,4.40
2018,02,24,13,15,4.40
2018,02,24,13,16,4.30
2018,02,24,13,17,4.30
2018,02,24,13,18,4.30
2018,02,24,13,19,4.30
2018,02,24,13,20,4.20
2018,02,24,13,21,4.20
2018,02,24,13,22,4.20
2018,02,24,13,23,4.20
2018,02,24,13,24,4.10
2018,02,24,13,25,4.10
2018,02,24,13,26,4.10
2018,02,24,13,27,4.10
2018,02,24,13,28,4.10
2018,02,24,13,29,4.10
2018,02,24,13,30,4.10
2018,02,24,13,31,4.10
2018,02,24,13,32,4.10
2018,02,24,13,33,4.10
2018,02,24,13,34,4.00
2018,02,24,13,35,4.00
2018,02,24,13,36,4.00
2018,02,24,13,37,3.90
2018,02,24,13,38,3.90
2018,02,24,13,39,3.90
2018,02,24,13,40,4.00
2018,02,24,13,41,4.00
2018,02,24,13,42,4.10
2018,02,24,13,43,4.10
2018,02,24,13,44,4.10
2018,02,24,13,45,4.20
2018,02,24,13,46,4.20
2018,02,24,13,47,4.20
2018,02,24,13,48,4.10
2018,02,24,13,49,4.10
2018,02,24,13,50,4.00
2018,02,24,13,51,4.00
2018,02,24,13,52,4.00
2018,02,24,13,53,4.10
2018,02,24,13,54,4.10
2018,02,24,13,55,4.00
2018,02,24,13,56,4.00
2018,02,24,13,57,4.00
2018,02,24,13,58,4.00
2018,02,24,13,59,4.00
2018,02,24,14,00,3.90
2018,02,24,14,01,3.90
2018,02,24,14,02,3.90
2018,02,24,14,03,3.90
2018,02,24,14,04,3.90
2018,02,24,14,05,3.90
2018,02,24,14,06,3.90
2018,02,24,14,07,3.90
2018,02,24,14,08,3.90
2018,02,24,14,09,3.90
2018,02,24,14,10,3.90
2018,02,24,14,11,4.00
2018,02,24,14,12,4.00
2018,02,24,14,13,4.10
2018,02,24,14,14,4.20
2018,02,24,14,15,4.20
2018,02,24,14,16,4.30
2018,02,24,14,17,4.30
2018,02,24,14,18,4.30
2018,02,24,14,19,4.30
2018,02,24,14,20,4.30
2018,02,24,14,21,4.40
2018,02,24,14,22,4.40
2018,02,24,14,23,4.40
2018,02,24,14,24,4.40
2018,02,24,14,25,4.50
2018,02,24,14,26,4.50
2018,02,24,14,27,4.50
2018,02,24,14,28,4.50
2018,02,24,14,29,4.50
2018,02,24,14,30,4.50
2018,02,24,14,31,4.40
2018,02,24,14,32,4.50
2018,02,24,14,33,4.40
2018,02,24,14,34,4.40
2018,02,24,14,35,4.40
2018,02,24,14,36,4.40
2018,02,24,14,37,4.40
2018,02,24,14,38,4.30
2018,02,24,14,39,4.30
2018,02,24,14,40,4.30
2018,02,24,14,41,4.20
2018,02,24,14,42,4.20
2018,02,24,14,43,4.30
2018,02,24,14,44,4.30
2018,02,24,14,45,4.30
2018,02,24,14,46,4.30
2018,02,24,14,47,4.30
2018,02,24,14,48,4.30
2018,02,24,14,49,4.30
2018,02,24,14,50,4.30
2018,02,24,14,51,4.30
2018,02,24,14,52,4.20
2018,02,24,14,53,4.20
2018,02,24,14,54,4.10
2018,02,24,14,55,4.10
2018,02,24,14,56,4.00
2018,02,24,14,57,4.00
2018,02,24,14,58,4.00
2018,02,24,14,59,4.00
2018,02,24,15,00,4.00
2018,02,24,15,01,3.90
2018,02,24,15,02,3.90
2018,02,24,15,03,3.90
2018,02,24,15,04,3.90
2018,02,24,15,05,3.90
2018,02,24,15,06,3.90
2018,02,24,15,07,3.80
2018,02,24,15,08,3.80
2018,02,24,15,09,3.80
2018,02,24,15,10,3.80
2018,02,24,15,11,3.80
2018,02,24,15,12,3.80
2018,02,24,15,13,3.80
2018,02,24,15,14,3.80
2018,02,24,15,15,3.80
2018,02,24,15,16,3.80
2018,02,24,15,17,3.80
2018,02,24,15,18,3.90
2018,02,24,15,19,3.90
2018,02,24,15,20,3.90
2018,02,24,15,21,3.90
2018,02,24,15,22,3.90
2018,02,24,15,23,3.90
2018,02,24,15,24,4.00
2018,02,24,15,25,4.00
2018,02,24,15,26,4.00
2018,02,24,15,27,4.00
2018,02,24,15,28,4.00
2018,02,24,15,29,4.00
2018,02,24,15,30,4.00
2018,02,24,15,31,4.00
2018,02,24,15,32,4.00
2018,02,24,15,33,4.10
2018,02,24,15,34,4.10
2018,02,24,15,35,4.10
2018,02,24,15,36,4.20
2018,02,24,15,37,4.20
2018,02,24,15,38,4.20
2018,02,24,15,39,4.20
2018,02,24,15,40,4.20
2018,02,24,15,41,4.20
2018,02,24,15,42,4.20
2018,02,24,15,43,4.20
2018,02,24,15,44,4.20
2018,02,24,15,45,4.20
2018,02,24,15,46,4.20
2018,02,24,15,47,4.30
2018,02,24,15,48,4.30
2018,02,24,15,49,4.30
2018,02,24,15,50,4.30
2018,02,24,15,51,4.40
2018,02,24,15,52,4.40
2018,02,24,15,53,4.30
2018,02,24,15,54,4.40
2018,02,24,15,55,4.40
2018,02,24,15,56,4.30
2018,02,24,15,57,4.30
2018,02,24,15,58,4.20
2018,02,24,15,59,4.20
2018,02,24,16,00,4.20
2018,02,24,16,01,4.20
2018,02,24,16,02,4.30
2018,02,24,16,03,4.40
2018,02,24,16,04,4.40
2018,02,24,16,05,4.40
2018,02,24,16,06,4.40
2018,02,24,16,07,4.40
2018,02,24,16,08,4.50
2018,02,24,16,09,4.40
2018,02,24,16,10,4.50
2018,02,24,16,11,4.50
2018,02,24,16,12,4.40
2018,02,24,16,13,4.40
2018,02,24,16,14,4.40
2018,02,24,16,15,4.30
2018,02,24,16,16,4.30
2018,02,24,16,17,4.30
2018,02,24,16,18,4.30
2018,02,24,16,19,4.30
2018,02,24,16,20,4.30
2018,02,24,16,21,4.30
2018,02,24,16,22,4.30
2018,02,24,16,23,4.30
2018,02,24,16,24,4.30
2018,02,24,16,25,4.30
2018,02,24,16,26,4.40
2018,02,24,16,27,4.40
2018,02,24,16,28,4.40
2018,02,24,16,29,4.40
2018,02,24,16,30,4.40
2018,02,24,16,31,4.40
2018,02,24,16,32,4.30
2018,02,24,16,33,4.30
2018,02,24,16,34,4.30
2018,02,24,16,35,4.30
2018,02,24,16,36,4.30
2018,02,24,16,37,4.40
2018,02,24,16,38,4.40
2018,02,24,16,39,4.50
2018,02,24,16,40,4.50
2018,02,24,16,41,4.60
2018,02,24,16,42,4.70
2018,02,24,16,43,4.70
2018,02,24,16,44,4.70
2018,02,24,16,45,4.70
2018,02,24,16,46,4.70
2018,02,24,16,47,4.70
2018,02,24,16,48,4.70
2018,02,24,16,49,4.70
2018,02,24,16,50,4.60
2018,02,24,16,51,4.60
2018,02,24,16,52,4.60
2018,02,24,16,53,4.50
2018,02,24,16,54,4.50
2018,02,24,16,55,4.50
2018,02,24,16,56,4.40
2018,02,24,16,57,4.40
2018,02,24,16,58,4.40
2018,02,24,16,59,4.40
2018,02,24,17,00,4.40
2018,02,24,17,01,4.40
2018,02,24,17,02,4.40
2018,02,24,17,03,4.40
2018,02,24,17,04,4.40
2018,02,24,17,05,4.40
2018,02,24,17,06,4.40
2018,02,24,17,07,4.40
2018,02,24,17,08,4.40
2018,02,24,17,09,4.40
2018,02,24,17,10,4.30
2018,02,24,17,11,4.30
2018,02,24,17,12,4.30
2018,02,24,17,13,4.30
2018,02,24,17,14,4.20
2018,02,24,17,15,4.20
2018,02,24,17,16,4.10
2018,02,24,17,17,4.10
2018,02,24,17,18,4.00
2018,02,24,17,19,4.00
2018,02,24,17,20,4.00
2018,02,24,17,21,3.90
2018,02,24,17,22,3.90
2018,02,24,17,23,3.90
2018,02,24,17,24,3.80
2018,02,24,17,25,3.80
2018,02,24,17,26,3.70
2018,02,24,17,27,3.60
2018,02,24,17,28,3.60
2018,02,24,17,29,3.50
2018,02,24,17,30,3.40
2018,02,24,17,31,3.40
2018,02,24,17,32,3.30
2018,02,24,17,33,3.30
2018,02,24,17,34,3.30
2018,02,24,17,35,3.20
2018,02,24,17,36,3.30
2018,02,24,17,37,3.30
2018,02,24,17,38,3.30
2018,02,24,17,39,3.40
2018,02,24,17,40,3.50
2018,02,24,17,41,3.50
2018,02,24,17,42,3.50
2018,02,24,17,43,3.40
2018,02,24,17,44,3.40
2018,02,24,17,45,3.40
2018,02,24,17,46,3.30
2018,02,24,17,47,3.30
2018,02,24,17,48,3.30
2018,02,24,17,49,3.30
2018,02,24,17,50,3.30
2018,02,24,17,51,3.30
2018,02,24,17,52,3.30
2018,02,24,17,53,3.30
2018,02,24,17,54,3.20
2018,02,24,17,55,3.20
2018,02,24,17,56,3.20
2018,02,24,17,57,3.20
2018,02,24,17,58,3.20
2018,02,24,17,59,3.20
2018,02,24,18,00,3.20
2018,02,24,18,01,3.20
2018,02,24,18,02,3.30
2018,02,24,18,03,3.30
2018,02,24,18,04,3.30
2018,02,24,18,05,3.20
2018,02,24,18,06,3.20
2018,02,24,18,07,3.20
2018,02,24,18,08,3.20
2018,02,24,18,09,3.20
2018,02,24,18,10,3.20
2018,02,24,18,11,3.10
2018,02,24,18,12,3.10
2018,02,24,18,13,3.10
2018,02,24,18,14,3.00
2018,02,24,18,15,2.90
2018,02,24,18,16,2.90
2018,02,24,18,17,2.80
2018,02,24,18,18,2.80
2018,02,24,18,19,2.70
2018,02,24,18,20,2.70
2018,02,24,18,21,2.60
2018,02,24,18,22,2.60
2018,02,24,18,23,2.50
2018,02,24,18,24,2.40
2018,02,24,18,25,2.40
2018,02,24,18,26,2.40
2018,02,24,18,27,2.50
2018,02,24,18,28,2.50
2018,02,24,18,29,2.60
2018,02,24,18,30,2.70
2018,02,24,18,31,2.70
2018,02,24,18,32,2.70
2018,02,24,18,33,2.80
2018,02,24,18,34,2.80
2018,02,24,18,35,2.80
2018,02,24,18,36,2.80
2018,02,24,18,37,2.80
2018,02,24,18,38,2.80
2018,02,24,18,39,2.80
2018,02,24,18,40,2.80
2018,02,24,18,41,2.80
2018,02,24,18,42,2.80
2018,02,24,18,43,2.80
2018,02,24,18,44,2.80
2018,02,24,18,45,2.80
2018,02,24,18,46,2.80
2018,02,24,18,47,2.80
2018,02,24,18,48,2.80
2018,02,24,18,49,2.80
2018,02,24,18,50,2.80
2018,02,24,18,51,2.80
2018,02,24,18,52,2.90
2018,02,24,18,53,3.00
2018,02,24,18,54,3.20
2018,02,24,18,55,3.40
2018,02,24,18,56,3.50
2018,02,24,18,57,3.70
2018,02,24,18,58,3.80
2018,02,24,18,59,3.90
2018,02,24,19,00,4.00
2018,02,24,19,01,4.20
2018,02,24,19,02,4.40
2018,02,24,19,03,4.50
2018,02,24,19,04,4.70
2018,02,24,19,05,4.80
2018,02,24,19,06,5.10
2018,02,24,19,07,5.40
2018,02,24,19,08,5.50
2018,02,24,19,09,5.60
2018,02,24,19,10,5.70
2018,02,24,19,11,5.70
2018,02,24,19,12,5.60
2018,02,24,19,13,5.50
2018,02,24,19,14,5.30
2018,02,24,19,15,5.10
2018,02,24,19,16,5.20
2018,02,24,19,17,5.40
2018,02,24,19,18,5.60